Skip Page Navigation
NASA JPL Caltech
NASA Logo - Jet Propulsion Laboratory + View the NASA Portal
+ Center for Near-Earth Object Studies
JPL Home Earth Solar System Stars & Galaxies Technology
JPL Solar System Dynamics
BODIES ORBITS EPHEMERIDES TOOLS PHYSICAL DATA DISCOVERY FAQ SITE MAP
JPL Small-Body Database Browser
Search: [ help ]  
413698 (2005 YS23)
Classification: Main-belt Asteroid          SPK-ID: 2413698
Ephemeris | Orbit Diagram | Orbital Elements | Mission Design | Physical Parameters | Discovery Circumstances ]

[ show orbit diagram ]
Orbital Elements at Epoch 2459000.5 (2020-May-31.0) TDB
Reference: JPL 14 (heliocentric ecliptic J2000)
 Element Value Uncertainty (1-sigma)   Units 
e .1397184737099512 7.3996e-08  
a 2.690053945483627 2.3735e-08 au
q 2.314203714023223 2.0766e-07 au
i 16.01125472816888 6.8572e-06 deg
node 105.5736025195143 2.111e-05 deg
peri 1.8347758321846 3.5557e-05 deg
M 94.75683883790266 2.6776e-05 deg
tp 2458576.322162271739
(2019-Apr-02.82216227)
0.00011729 TDB
period 1611.535625870757
4.41
2.1328e-05
5.839e-08
d
yr
n .223389414556369 2.9565e-09 deg/d
Q 3.065904176944032 2.7051e-08 au
  Orbit Determination Parameters
   # obs. used (total)      182  
   data-arc span      5239 days (14.34 yr)  
   first obs. used      2005-12-24  
   last obs. used      2020-04-28  
   planetary ephem.      DE431  
   SB-pert. ephem.      SB431-N16  
   condition code      0  
   norm. resid. RMS      .54229  
   source      ORB  
   producer      Otto Matic  
   solution date      2020-May-22 02:08:19  

Additional Information
 Earth MOID = 1.33106 au 
 Jupiter MOID = 2.081 au 
 T_jup = 3.303 
[ show covariance matrix ]

Ephemeris | Orbit Diagram | Orbital Elements | Mission Design | Physical Parameters | Discovery Circumstances ]

Physical Parameter Table
Parameter Symbol Value Units Sigma Reference Notes
absolute magnitude H 16.8   n/a MPO419033  

413698 (2005 YS23)          Discovered 2005-Dec-24 by Spacewatch at Kitt Peak
Reference: Last Updated: 2014-11-10
Ephemeris | Orbit Diagram | Orbital Elements | Mission Design | Physical Parameters | Discovery Circumstances ]
ABOUT SSD CREDITS/AWARDS PRIVACY/COPYRIGHT GLOSSARY LINKS
FirstGov 2020-Jul-10 12:54 UT
(server date/time)  
NASA Home Page
Site Manager:   Ryan S. Park
Webmaster  Alan B. Chamberlin